www.pogodaiklimat.ru

Погода и климат >> Архив погоды >> Россия >> Иркутская область >> Култук


ПОГОДА в Култуке

  • Прогноз погоды в Култуке
  • Монитор погоды в Култуке

АРХИВ ПОГОДЫ в Култуке

Время (UTC), дата Ветер
(напр.,м/с)
 
Видим.   Явления Облачность Т
(С)
Тd
(С)
f
(%)
Тe
(С)
Тes
(С)
Комфортность P
(гПа)
Po
(гПа)
Тmin
(С)
Tmax
(С)
R
(мм)
R24
(мм)
S
(см)
03 11.09 СВ 1 10 км осадки на расстоянии 9/6 600 м
[Cb cap Ci sp]
+12.7 +9.2 79 +13 +14 1014.3 960.0
06 11.09 штиль 0 10 км 9/5 600 м
[Frnb Ac lent Ci sp]
+12.4 +10.1 86 +12 +13 1011.5 957.3
09 11.09 З 4 10 км слаб. ливневой дождь 9/6 600 м
[Cb cap Cs]
+11.0 +9.3 89 +9 +9 1011.8 957.3
12 11.09 З 2 10 км в посл. час ливневой дождь {гроза} 9/8 600 м
[Cb cap Ci sp]
+8.7 +8.2 97 +7 +7 1012.3 957.2 +13.3 11
15 11.09 З 3 10 км осадки на расстоянии {ливн. осадки} 9/6 600 м
[Cb cap Ci sp]
+9.0 +7.1 88 +6 +6 1013.7 958.7
18 11.09 З 4 20 км сильн. ливневой дождь 8/4 1000 м
[Cb calv Ci sp]
+8.6 +6.6 87 +5 +5 1013.8 958.7
21 11.09 З 6 20 км 3/3 1000 м
[Sc Ci fib]
+7.2 +5.2 87 +3 +3 1014.1 958.7
00 12.09 З 5-10
{11}
20 км 4/3 1000 м
[Sc Ac lent Ci fib]
+7.7 +5.3 85 +4 +4 1013.6 958.2 +6.7 0.5
03 12.09 З 6
{11}
50 км 3/1 1000 м
[Cu med, cong Ac lent]
+12.3 +6.6 68 +10 +12 1014.5 960.0
06 12.09 ЮВ 3 50 км 4/3 1000 м
[Cb calv Ac lent Ci sp]
+14.2 +9.0 71 +13 +18 1012.7 958.7
09 12.09 ЮВ 2 50 км 1/1 1000 м
[Cu med, cong]
+13.9 +8.5 70 +13 +16 1011.3 957.3
12 12.09 СЗ 10-17
{23}
10 км осадки на расстоянии 10/10 600 м
[Cb cap]
+8.3 +2.7 68 +3 +3 1015.5 960.2 +17.2
15 12.09 З 1
{22}
10 км слаб. ливневой дождь 10/10 600 м
[Cb cap]
+6.5 +3.1 79 +6 +6 1020.8 964.8
18 12.09 СЗ 2 10 км в посл. час ливневой дождь 9/8 600 м
[Cb cap Cs]
+5.4 +3.9 90 +3 +3 1020.7 964.5
21 12.09 СЗ 4 20 км 3/3 600 м
[Sc]
+4.4 +2.6 88 0 0 1019.3 963.0
00 13.09 З 4 50 км 9/3 600 м
[Sc Ci fib]
+4.2 +2.3 87 -0 0 1018.9 962.6 +3.3 3
03 13.09 З 4 50 км 9/1 1000 м
[Sc Ci fib]
+10.4 +3.7 63 +8 +9 1017.7 962.7
06 13.09 ЮВ 4 50 км 4/3 1000 м
[Cu Sc Ci fib]
+10.9 +4.8 66 +9 +12 1014.8 960.0
09 13.09 Ю 1 50 км 9/4 1000 м
[Sc Ci sp]
+9.9 +4.7 70 +10 +10 1013.6 958.7
12 13.09 С 2 20 км 9/4 1000 м
[Sc Ci sp]
+8.3 +6.1 86 +6 +6 1011.9 956.8 +11.3
15 13.09 З 2 20 км 3/1 1000 м
[Sc Ci fib]
+6.2 +5.2 93 +4 +4 1012.8 957.3
18 13.09 З 3 20 км 9/4 1000 м
[Sc Ci sp]
+6.9 +1.8 70 +4 +4 1011.4 956.0
21 13.09 З 6
{11}
20 км 9/3 1000 м
[Sc Ci fib]
+6.1 +1.3 71 +2 +2 1010.5 955.0
00 14.09 З 6
{10}
50 км 9/4 1000 м
[Sc Ci sp]
+6.9 -0.7 58 +3 +3 1010.6 955.2 +5.4
03 14.09 С 9-16
{16}
50 км 6/3 1000 м
[Sc Ac trans Ci fib]
+9.1 +1.0 57 +5 +5 1012.0 957.0
06 14.09 СВ 7-10
{16}
20 км 9/5 1000 м
[Cb calv Ci sp]
+9.3 +0.9 56 +6 +7 1014.4 959.3
09 14.09 штиль 0
{10}
10 км осадки на расстоянии 9/6 600 м
[Cb cap Cs]
+7.8 +1.2 63 +7 +9 1016.9 961.4
12 14.09 ЮЗ 2
{11}
10 км осадки на расстоянии 9/6 600 м
[Cb cap Cs]
+5.9 -0.2 65 +4 +4 1020.9 964.7 +10.8
15 14.09 СЗ 2 10 км 9/4 600 м
[Cb calv Cs]
+5.0 +0.6 73 +3 +3 1024.5 968.0
18 14.09 З 1 10 км 9/4 600 м
[Cb calv Cs]
+4.3 -0.7 70 +3 +3 1023.2 966.7
21 14.09 З 3 10 км 6/3 600 м
[Sc Ac trans Ci fib]
+0.8 -1.3 86 -4 -4 1022.5 965.3
00 15.09 З 5 50 км 9/5 1000 м
[Cb calv Ac trans Ci sp]
+3.5 -1.3 71 -1 -1 1020.2 963.6 +0.7
03 15.09 З 3 50 км 9 баллов +8.5 -0.0 55 +6 +7 1019.5 964.0
06 15.09 ЮВ 2 50 км 6 баллов +9.7 +1.6 57 +8 +12 1017.9 962.7
09 15.09 Ю 2 50 км 6/4 1000 м
[Cb calv Ci sp]
+9.8 +2.9 62 +9 +10 1015.0 960.0
12 15.09 СЗ 1 20 км 9/4 1000 м
[Cb calv Ac trans Ci sp]
+7.5 +3.8 77 +7 +7 1014.8 959.4 +10.1
15 15.09 З 2 20 км 6/3 1000 м
[Sc Ci sp]
+5.1 +3.3 88 +2 +2 1015.9 960.0
18 15.09 З 2 20 км 9 баллов +5.6 +2.6 81 +3 +3 1015.8 960.0
21 15.09 З 3 20 км 9 баллов +5.1 +2.5 83 +2 +2 1016.0 960.0
00 16.09 З 2 50 км 9/4 1000 м
[Sc Ac trans Ci sp]
+5.3 +3.7 89 +3 +3 1015.9 960.0 +4.5
03 16.09 ЮВ 2 20 км 9 баллов +12.5 +4.9 60 +12 +12 1015.8 961.3
06 16.09 СВ 7-14
{14}
20 км 9/5 1000 м
[Cb calv Ci sp]
+13.0 +5.8 62 +11 +12 1016.1 961.7
09 16.09 СВ 2
{14}
20 км {ливн. осадки} 9/6 600 м
[Cb calv Cs]
+11.0 +6.1 72 +10 +10 1020.3 965.3
12 16.09 СЗ 2 20 км осадки на расстоянии {ливн. осадки} 9/6 600 м
[Cb cap Cs]
+9.8 +3.7 66 +8 +8 1022.3 966.9 +14.0 0.8
15 16.09 СЗ 2 20 км 9 баллов +8.1 +3.9 75 +6 +6 1026.6 970.7
18 16.09 ЮЗ 1 20 км 9 баллов +6.3 +3.1 80 +5 +5 1028.4 972.0
21 16.09 З 2 20 км 9 баллов +7.1 +3.3 77 +5 +5 1028.2 972.0
00 17.09 З 2 50 км 9/5 1000 м
[Cb calv Ci sp]
+7.6 +3.9 77 +6 +6 1027.6 971.5 +6.1
03 17.09 Ю 3 50 км 2 балла +12.2 +6.0 66 +11 +15 1027.2 972.0
06 17.09 ЮВ 3 50 км 1 балл +12.2 +6.5 68 +11 +17 1025.8 970.7
12 17.09 СЗ 1 20 км 3/3 600 м
[Sc Ci sp]
+8.6 +6.9 89 +8 +8 1023.7 968.0 +13.3
15 17.09 З 2 20 км 6 баллов +7.4 +6.5 94 +5 +5 1025.3 969.3
18 17.09 З 2 20 км 9 баллов +7.6 +6.2 91 +5 +5 1023.9 968.0
21 17.09 СЗ 3 20 км 9 баллов +7.7 +5.3 85 +5 +5 1022.5 966.7

 

Местоположение метеостанции Култук (Иркутская область, Россия): широта 51.72 долгота 103.70 высота над уровнем моря 465 м.

В архиве по умолчанию представлена погода в Култуке за последнюю неделю. Архивные данные за месяц целиком и за предыдущие месяцы, начиная с января 2011 года, Вы можете получить, выбрав интересующий диапазон дат из раскрывающегося списка и нажав кнопку "Ввод!".


*Определитесь, кто Вы:
робот инопланетянин человек

Внимание! Время в таблицах - всемирное. Для получения местного времени необходимо прибавить поправку, которая равна 8 ч.

Смотрите также архив погоды в соседних городах и на ближайших метеорологических станциях:

Погода в Хамар-Дабан (Иркутская область, Россия) (22 км)
Погода в Байкальске (Иркутская область, Россия) (29 км)
Погода в Иркутске (Иркутская область, Россия) (74 км)
Погода в Иркутске аэропорт (Иркутская область, Россия) (74 км)
Погода в Дабадах (Иркутская область, Россия) (81 км)
Погода в Тунке (Бурятия, Россия) (83 км)
Погода в Ангарск (Иркутская область, Россия) (85 км)
Погода в Хомутово (Иркутская область, Россия) (92 км)
Погода в Танхое (Бурятия, Россия) (98 км)
Погода в Кырене (Бурятия, Россия) (110 км)

Пояснения к столбцам:

Ветер - указаны скорость ветра в м/с - средняя за 10 мин, порывы в срок и между сроками (в фигурных скобках) и направление, откуда дует ветер: С - северный, СВ - северо-восточный, В - восточный, ЮВ - юго-восточный, Ю - южный, ЮЗ - юго-западный, З - западный, СЗ - северо-западный.
Видимость - горизонтальная дальность видимости в метрах или километрах. При видимости от 1 до 10 км при отсутствии осадков обычно наблюдается дымка, при ухудшении видимости до 1 км и менее - туман. В сухую погоду видимость может ухудшаться дымом, пылью или мглою.
Явления - указаны атмосферные явления, наблюдавшиеся в срок или в последний час перед сроком; фигурными скобками обозначены явления, наблюдавшиеся между сроками (за 1-3 часа до срока); квадратными скобками обозначены град или гололедные отложения с указанием их диаметра в мм.
Облачность - указаны через наклонную черту общая и нижняя облачность в баллах и высота нижней границы облаков в метрах; квадратными скобками обозначены формы облаков: Ci - перистые, Cs - перисто-слоистые, Cc - перисто-кучевые, Ac - высококучевые, As - высокослоистые, Sc - слоисто-кучевые, Ns - слоисто-дождевые, Cu - кучевые, Cb - кучево-дождевые. Подробнее классификацию облаков см. в Атласе облаков (PDF).
T - Температура воздуха - температура, измеренная на высоте 2 м над землей.
Td - Температура точки росы - температура, при понижении до которой содержащийся в воздухе водяной пар достигнет насыщения.
f - Относительная влажность воздуха - влажноcть воздуха, измеренная на высоте 2 м над землей.
Te - Эффективная температура - температура, которую ощущает одетый по сезону человек в тени. Характеристика душности погоды. При расчете учитывается влияние влажности воздуха и скорости ветра на теплоощущения человека.
Tes - Эффективная температура на солнце - температура, которую ощущает человек, с поправкой на солнечный нагрев. Характеристика знойности погоды. Зависит от высоты солнца над горизонтом, облачности и скорости ветра. Ночью, в пасмурную погоду, а также при ветре 12 м/с и более поправка равна нулю.
P - Атмосферное давление - приведенное к уровню моря атмосферное давление.
Po - Атмосферное давление - измеренное на уровне метеостанции атмосферное давление.
Tmin - Минимальная температура - минимум температуры воздуха на высоте 2 м над землей.
Tmax - Максимальная температура - максимум температуры воздуха на высоте 2 м над землей.
R - Количество осадков - Количество выпавших осадков за период времени, мм. При наведении курсора мыши на число - период времени, за который выпало указанное количество осадков.
R24 - Количество осадков - Количество выпавших осадков за 24 часа, мм.
S - Снежный покров - Высота снежного покрова, см. При наведении курсора мыши на число - состояние снежного покрова и степень покрытия местности в баллах.